Find Starlink 32005

NORAD ID: 60034 Int'l Des: 2024-111 Owner: SPXS Country: US Constellation: starlink operational
LEOCIRCULAR

リアルタイム位置

3D地球を読み込み中...

Starlink 32005について

説明を読み込み中...

次回通過

Passes for default location (London). Set your location on the main map for personalized predictions.

高度履歴

Loading altitude history...

軌道要素

1 60034U 24111U 26127.27174180 -.00000576 00000-0 -73394-5 0 9991
2 60034 53.1606 163.4472 0001121 87.5955 272.5175 15.30189234107909
Epoch: May 7, 2026 • Age: 5 hours

現在のステータス

高度 475.3 km
速度 7.63 km/s
衛星直下点 7.58°N, 133.92°E
打ち上げ日 Jun 8, 2024
運用期間 1.9 years
タイプ internet

技術仕様

分類 Payload
質量 730.00 kg
乾燥質量 700.00 kg
総質量 730.00 kg
長さ 0.30 m
直径 4.10 m
スパン 29.00 m
形状 Box + pan
製造者 SPXS
バスタイプ Starlink V2M
フェーズステータス In Orbit
所有者/国 SPXS/US

Most Searched